Regional Weather Roundup
Issued by NWS Goodland, KS

Home | Current Version | Previous Version | Graphics & Text | Print | Product List | Glossary On
Versions: 1 2 3 4 5 6 7 8 9 10 11 12 13 14 15 16 17 18 19 20 21 22 23 24 25 26 27 28 29 30 31 32 33 34 35 36 37 38 39 40 41 42 43 44 45 46 47 48 49 50
000
ASUS43 KGLD 191859
RWRGLD

GOODLAND FORECAST AREA HOURLY WEATHER ROUNDUP
NATIONAL WEATHER SERVICE GOODLAND KS
100 PM MDT THU OCT 19 2017

...OFFICIAL OBSERVATIONS...

CITY           SKY/WX    TMP DP  RH WIND       PRES   REMARKS
GOODLAND KS    FAIR      79  46  31 S21G30    30.00F
HILL CITY KS   FAIR      83  47  28 S14       30.00F
IMPERIAL NEB   FAIR      82  40  22 S16G28    29.97F
MCCOOK NEB     FAIR      79  48  33 S13       29.98F
AKRON CO       FAIR      80  25  13 S18       29.99F
BURLINGTON CO  FAIR      79  44  28 S21G29    30.02F
LIMON CO       FAIR      74  27  17 S13G22    30.05F
$$

...UNOFFICIAL OBSERVATIONS...

CITY           SKY/WX    TMP DP  RH WIND       PRES   REMARKS
LENORA KS        N/A     81  32  17 S9          N/A
NORTON KS      SUNNY     79  41  25 SE10      29.99
SHARON SPRINGS   N/A     79  48  33 SE12G21     N/A
TRENTON NEB      N/A     81  32  17 S9          N/A
YUMA CO        FAIR      79  36  21 S16       29.98F
$$




USA.gov is the U.S. government's official web portal to all federal, state and local government web resources and services.